Date String (YYYY-MM-DD hh:mm:ss) UTC,Instrument flags,absolute air pressure of the measurement (hPa),sample flow rate (lpm),inlet stack bypass flow (lpm),air temperature of the measurement (°C),ambient temperature measured by the external sensor (°C),aerosol sample conditioner tube jacket temperature (°C),OPC LED temperature (°C),internal box temperature (°C),relative humidity of the measurement (%),span deviation,mass concentration of particles derived from Lorenz-Mie calculation of OPC scattering (μg/m³),mass concentration of particles derived from Lorenz-Mie calculation of OPC scattering (μg/m³),mass concentration of particles derived from Lorenz-Mie calculation of OPC scattering (μg/m³)
DateTimeUTC,F1_M11,P_M11,Q1_M11,Q2_M11,T1_M11,T2_M11,T3_M11,T4_M11,T5_M11,U1_M11,ZSPAN_M11,X2_M11,X0_M11,X1_M11
2023-08-19 16:00:00,SystemResetWarning,0834.2,5.00,000.00,029.9,025.3,000.0,037.9,030.0,33.0,0000.0,0003.17,0007.63,0002.45
2023-08-19 16:01:00,SystemResetWarning,0834.4,5.00,000.00,029.9,025.7,000.0,037.9,030.0,33.1,0000.0,0003.18,0007.68,0002.49
2023-08-19 16:02:00,SystemResetWarning,0834.6,5.00,000.00,029.9,026.1,000.0,037.9,030.1,33.4,0000.0,0003.21,0007.99,0002.52
2023-08-19 16:03:00,SystemResetWarning,0834.3,4.99,000.00,029.8,026.0,000.0,037.9,030.1,33.5,0000.0,0003.23,0008.29,0002.56
2023-08-19 16:04:00,SystemResetWarning,0834.2,4.99,000.00,029.8,024.8,000.0,037.7,029.8,32.5,0000.0,0003.25,0008.44,0002.59
2023-08-19 16:05:00,SystemResetWarning,0834.3,5.01,000.00,029.7,024.2,000.0,037.6,029.7,32.3,0000.0,0003.32,0008.65,0002.62
2023-08-19 16:06:00,SystemResetWarning,0834.4,5.01,000.00,029.6,024.3,000.0,037.6,029.6,33.0,0000.0,0003.35,0008.75,0002.64
2023-08-19 16:07:00,SystemResetWarning,0834.5,5.01,000.00,029.4,024.7,000.0,037.6,029.6,34.0,0000.0,0003.37,0008.63,0002.66
2023-08-19 16:08:00,SystemResetWarning,0834.4,4.99,000.00,029.4,025.1,000.0,037.6,029.7,33.8,0000.0,0003.37,0008.05,0002.68
2023-08-19 16:09:00,SystemResetWarning,0834.3,5.00,000.00,029.4,025.5,000.0,037.6,029.8,33.5,0000.0,0003.36,0008.72,0002.68
2023-08-19 16:10:00,SystemResetWarning,0834.3,4.99,000.00,029.3,025.9,000.0,037.6,029.9,34.5,0000.0,0003.35,0008.71,0002.67
2023-08-19 16:11:00,SystemResetWarning,0834.3,5.04,000.00,029.4,026.2,000.0,037.6,030.1,34.8,0000.0,0003.31,0008.50,0002.67
2023-08-19 16:12:00,SystemResetWarning,0834.3,4.95,000.00,029.5,026.2,000.0,037.5,030.1,33.6,0000.0,0003.31,0008.54,0002.67
2023-08-19 16:13:00,SystemResetWarning,0834.5,5.02,000.00,029.5,025.0,000.0,037.4,029.8,32.7,0000.0,0003.29,0008.85,0002.66
2023-08-19 16:14:00,SystemResetWarning,0834.4,5.01,000.00,029.5,024.3,000.0,037.3,029.7,33.4,0000.0,0003.28,0008.48,0002.67
2023-08-19 16:15:00,SystemResetWarning,0834.3,5.00,000.00,029.4,024.4,000.0,037.3,029.6,32.5,0000.0,0003.32,0008.47,0002.68
2023-08-19 16:16:00,SystemResetWarning,0834.2,5.00,000.00,029.3,024.7,000.0,037.3,029.6,32.3,0000.0,0003.30,0008.74,0002.70
2023-08-19 16:17:00,SystemResetWarning,0834.5,5.01,000.00,029.3,025.1,000.0,037.4,029.7,32.3,0000.0,0003.33,0008.77,0002.73
2023-08-19 16:18:00,SystemResetWarning,0834.5,5.00,000.00,029.3,025.5,000.0,037.4,029.8,32.7,0000.0,0003.33,0008.79,0002.73
2023-08-19 16:19:00,SystemResetWarning,0834.3,5.00,000.00,029.3,025.9,000.0,037.4,029.9,32.7,0000.0,0003.38,0008.63,0002.76
2023-08-19 16:20:00,SystemResetWarning,0834.5,4.99,000.00,029.3,025.9,000.0,037.4,029.9,33.3,0000.0,0003.37,0007.88,0002.76
2023-08-19 16:21:00,SystemResetWarning,0834.6,4.99,000.00,029.2,024.8,000.0,037.2,029.7,31.9,0000.0,0003.37,0007.87,0002.77
2023-08-19 16:22:00,SystemResetWarning,0834.3,5.01,000.00,029.2,024.1,000.0,037.1,029.6,32.2,0000.0,0003.40,0008.38,0002.78
2023-08-19 16:23:00,SystemResetWarning,0834.2,5.02,000.00,029.1,024.3,000.0,037.1,029.5,33.2,0000.0,0003.42,0008.86,0002.80
2023-08-19 16:24:00,SystemResetWarning,0834.2,4.99,000.00,029.0,024.6,000.0,037.1,029.5,34.8,0000.0,0003.44,0008.41,0002.81
2023-08-19 16:25:00,SystemResetWarning,0834.2,5.01,000.00,029.0,025.0,000.0,037.1,029.6,33.9,0000.0,0003.44,0008.39,0002.84
2023-08-19 16:26:00,SystemResetWarning,0834.2,4.99,000.00,029.0,025.5,000.0,037.1,029.7,34.4,0000.0,0003.41,0008.30,0002.86
2023-08-19 16:27:00,SystemResetWarning,0834.2,5.00,000.00,029.0,025.8,000.0,037.1,029.8,33.6,0000.0,0003.40,0007.83,0002.89
2023-08-19 16:28:00,SystemResetWarning,0834.2,5.00,000.00,029.1,026.1,000.0,037.2,029.9,32.9,0000.0,0003.38,0007.75,0002.90
2023-08-19 16:29:00,SystemResetWarning,0834.2,4.99,000.00,029.1,025.5,000.0,037.1,029.8,33.0,0000.0,0003.38,0007.82,0002.91
2023-08-19 16:30:00,SystemResetWarning,0834.1,5.00,000.00,029.0,024.5,000.0,037.0,029.5,33.2,0000.0,0003.38,0007.75,0002.92
2023-08-19 16:31:00,SystemResetWarning,0834.1,5.01,000.00,028.9,024.3,000.0,036.9,029.4,32.9,0000.0,0003.38,0007.42,0002.94
2023-08-19 16:32:00,SystemResetWarning,0834.1,5.01,000.00,028.8,024.5,000.0,036.9,029.4,31.1,0000.0,0003.40,0007.25,0002.97
2023-08-19 16:33:00,SystemResetWarning,0834.1,5.00,000.00,028.8,024.9,000.0,036.9,029.5,31.4,0000.0,0003.41,0006.95,0002.99
2023-08-19 16:34:00,SystemResetWarning,0834.1,5.00,000.00,028.7,025.3,000.0,036.9,029.6,31.7,0000.0,0003.41,0006.82,0003.01
2023-08-19 16:35:00,SystemResetWarning,0834.1,5.00,000.00,028.7,025.7,000.0,037.0,029.7,31.0,0000.0,0003.42,0006.75,0003.01
2023-08-19 16:36:00,SystemResetWarning,0834.1,5.00,000.00,028.7,026.0,000.0,037.0,029.8,32.5,0000.0,0003.46,0006.86,0003.02
2023-08-19 16:37:00,SystemResetWarning,0834.1,4.99,000.00,028.8,025.4,000.0,036.9,029.7,31.7,0000.0,0003.48,0007.33,0003.02
2023-08-19 16:38:00,SystemResetWarning,0834.0,5.00,000.00,028.7,024.4,000.0,036.8,029.4,32.2,0000.0,0003.49,0007.59,0003.01
2023-08-19 16:39:00,SystemResetWarning,0834.1,5.01,000.00,028.6,024.2,000.0,036.7,029.4,32.2,0000.0,0003.49,0007.60,0003.00
2023-08-19 16:40:00,SystemResetWarning,0834.1,5.01,000.00,028.5,024.5,000.0,036.7,029.4,32.3,0000.0,0003.50,0007.54,0003.01
2023-08-19 16:41:00,SystemResetWarning,0834.1,5.00,000.00,028.5,024.9,000.0,036.8,029.4,32.8,0000.0,0003.52,0007.63,0003.01
2023-08-19 16:42:00,SystemResetWarning,0834.1,5.00,000.00,028.5,025.3,000.0,036.8,029.5,33.1,0000.0,0003.52,0007.66,0003.01
2023-08-19 16:43:00,SystemResetWarning,0834.1,5.00,000.00,028.5,025.7,000.0,036.8,029.6,32.5,0000.0,0003.55,0007.76,0003.01
2023-08-19 16:44:00,SystemResetWarning,0834.1,5.00,000.00,028.5,026.0,000.0,036.8,029.7,33.4,0000.0,0003.55,0007.79,0003.01
2023-08-19 16:45:00,SystemResetWarning,0834.1,4.98,000.00,028.5,025.4,000.0,036.7,029.6,33.6,0000.0,0003.56,0007.33,0003.01
2023-08-19 16:46:00,SystemResetWarning,0834.1,5.00,000.00,028.4,024.3,000.0,036.6,029.4,34.2,0000.0,0003.53,0006.88,0003.03
2023-08-19 16:47:00,SystemResetWarning,0834.1,5.01,000.00,028.4,024.2,000.0,036.5,029.3,34.5,0000.0,0003.51,0007.05,0003.05
2023-08-19 16:48:00,SystemResetWarning,0834.1,5.00,000.00,028.3,024.4,000.0,036.5,029.2,34.5,0000.0,0003.51,0007.67,0003.06
2023-08-19 16:49:00,SystemResetWarning,0834.0,4.99,000.00,028.2,024.8,000.0,036.5,029.3,34.7,0000.0,0003.54,0007.72,0003.08
2023-08-19 16:50:00,SystemResetWarning,0834.0,5.00,000.00,028.2,025.2,000.0,036.5,029.4,34.6,0000.0,0003.55,0007.72,0003.09
2023-08-19 16:51:00,SystemResetWarning,0834.0,5.00,000.00,028.3,025.6,000.0,036.5,029.5,35.4,0000.0,0003.58,0008.03,0003.11
2023-08-19 16:52:00,SystemResetWarning,0834.1,5.01,000.00,028.5,026.0,000.0,036.6,029.7,33.5,0000.0,0003.62,0008.46,0003.12
2023-08-19 16:53:00,SystemResetWarning,0834.1,4.98,000.00,028.7,026.0,000.0,036.6,029.8,30.4,0000.0,0003.65,0008.58,0003.13
2023-08-19 16:54:00,SystemResetWarning,0834.1,5.02,000.00,028.7,024.9,000.0,036.5,029.6,31.4,0000.0,0003.68,0008.90,0003.14
2023-08-19 16:55:00,SystemResetWarning,0834.1,5.00,000.00,028.7,024.2,000.0,036.4,029.4,30.7,0000.0,0003.69,0008.89,0003.15
2023-08-19 16:56:00,SystemResetWarning,0834.1,5.00,000.00,028.7,024.3,000.0,036.4,029.3,31.0,0000.0,0003.70,0008.94,0003.17
2023-08-19 16:57:00,SystemResetWarning,0834.1,5.00,000.00,028.6,024.6,000.0,036.5,029.3,31.4,0000.0,0003.71,0009.46,0003.17
2023-08-19 16:58:00,SystemResetWarning,0834.1,5.00,000.00,028.6,025.0,000.0,036.5,029.4,32.4,0000.0,0003.72,0009.88,0003.17
2023-08-19 16:59:00,SystemResetWarning,0834.1,5.00,000.00,028.6,025.5,000.0,036.6,029.5,33.1,0000.0,0003.72,0009.46,0003.16
